Hourly Data Report for May 22, 2012

All times are specified in Local Standard Time (LST). Add 1 hour to adjust for Daylight Saving Time where and when it is observed.

ST. JOHN'S INTL A
NEWFOUNDLAND

47°37'07.000" N
52°45'09.000" W
140.50 m
8403505
71801
YYT

Download Data

Hourly Data (May 2012)
Hourly Data Report for May 22, 2012
Temp Definition
°C
Dew Point Temp Definition
°C
Rel Hum Definition
%
Wind Dir Definition
10's deg

Wind Spd Definition
km/h
Visibility Definition
km
Stn Press Definition
kPa
Hmdx Definition


Wind Chill Definition


Weather Definition


TIME
00:30 Legend Double Dagger 6.6 2.7 76 24 10 10.0 100.41     LegendNANA
01:30 Legend Double Dagger 7.2 3.8 79 25 17 10.0 100.32     LegendNANA
02:30 Legend Double Dagger 7.4 4.2 80 26 23 10.0 100.26     Mostly Cloudy
03:30 Legend Double Dagger 7.3 4.4 82 26 21 10.0 100.23     LegendNANA
04:30 Legend Double Dagger 7.2 4.5 83 26 25 10.0 100.19     LegendNANA
05:30 Legend Double Dagger 7.4 4.7 83 26 32 10.0 100.18     Mostly Cloudy
06:30 Legend Double Dagger 8.7 5.5 80 27 21 10.0 100.22     LegendNANA
07:30 Legend Double Dagger 11.6 6.6 71 25 12 10.0 100.21     LegendNANA
08:30 Legend Double Dagger 13.8 7.6 66 24 10 10.0 100.24     Cloudy
09:30 Legend Double Dagger 16.7 9.5 62 24 12 10.0 100.25     LegendNANA
10:30 Legend Double Dagger 19.0 9.9 55 26 17 10.0 100.21     LegendNANA
11:30 Legend Double Dagger 21.6 10.9 50 26 22 10.0 100.17     Mostly Cloudy
12:30 Legend Double Dagger 23.2 11.8 48 25 19 10.0 100.13 25   LegendNANA
13:30 Legend Double Dagger 24.6 11.0 42 24 23 10.0 100.12 26   LegendNANA
14:30 Legend Double Dagger 25.9 12.2 42 25 16 10.0 100.08 28   Mostly Cloudy
15:30 Legend Double Dagger 25.9 11.5 40 24 23 10.0 100.07 28   LegendNANA
16:30 Legend Double Dagger 24.4 11.2 43 26 25 10.0 100.07 26   LegendNANA
17:30 Legend Double Dagger 22.6 9.6 43 26 36 10.0 100.02     Cloudy
18:30 Legend Double Dagger 20.6 9.0 47 26 34 10.0 100.02     LegendNANA
19:30 Legend Double Dagger 19.2 8.4 49 26 36 10.0 100.02     LegendNANA
20:30 Legend Double Dagger 16.9 5.9 48 26 40 10.0 100.02     Mainly Clear
21:30 Legend Double Dagger 15.2 6.6 56 26 42 10.0 100.00     LegendNANA
22:30 Legend Double Dagger 13.6 10.8 83 26 43 10.0 100.00     LegendNANA
23:30 Legend Double Dagger 12.9 12.1 95 26 45 10.0 100.03     Mostly Cloudy

Notes on Data Quality.

Legend

  • E = Estimated
  • M = Missing
  • NA = Not Available
  • ‡ = Partner data that is not subject to review by the National Climate Archives
Date modified: